www.pogodaiklimat.ru

Погода и климат >> Архив погоды >> Кипр >> Ларнака


АРХИВ ПОГОДЫ в Ларнаке

Время (UTC), дата Ветер
(напр.,м/с)
 
Видим.   Явления Облачность Т
(С)
Тd
(С)
f
(%)
Тe
(С)
Тes
(С)
Комфортность P
(гПа)
Po
(гПа)
Тmin
(С)
Tmax
(С)
R
(мм)
R24
(мм)
S
(см)
09 9.07 Ю 4 15 км ясно +31.7 +23.0 60 +42 +57 опасность
перегрева
1008.1 1007.8
12 9.07 ЮЗ 7 15 км 1/1 900 м
[Cu hum]
+34.0 +19.6 43 +40 +44 очень
душно
1007.0 1006.7
15 9.07 ЮЗ 8 15 км 1/1 1500 м
[Sc]
+31.1 +24.0 66 +43 +43 опасность
перегрева
1005.6 1005.3
18 9.07 ЮЗ 5 12 км ясно +28.1 +25.1 84 +41 +41 опасность
перегрева
1006.2 1005.9 +28.1 +34.9
21 9.07 Ю 3 8000 м дымка ясно +27.0 +25.0 89 +39 +39 очень
душно
1006.4 1006.1
00 10.07 З 2 6000 м дымка 4/4 90 м
[St]
+24.5 +22.7 90 +32 +32 очень
душно
1005.6 1005.3
03 10.07 СЗ 2 5000 м дымка 8/8 120 м
[St]
+23.1 +21.2 89 +31 +31 очень
душно
1005.6 1005.3
06 10.07 ЮВ 3 9000 м дымка 4/4 300 м
[St]
+29.3 +24.8 77 +42 +46 опасность
перегрева
1005.7 1005.4 +22.5 +29.3 0.2
09 10.07 Ю 6 10 км 1/1 540 м
[Cu hum]
+31.6 +24.7 67 +45 +53 опасность
перегрева
1005.1 1004.8
12 10.07 ЮЗ 9 10 км 1/1 600 м
[Cu med, cong]
+32.8 +25.3 65 +47 +49 опасность
перегрева
1003.6 1003.3
15 10.07 ЮЗ 9 15 км 1/1 600 м
[Cu med, cong]
+31.0 +25.4 72 +45 +45 опасность
перегрева
1002.1 1001.8
18 10.07 ЮЗ 4 12 км ясно +28.8 +24.8 79 +41 +41 опасность
перегрева
1002.6 1002.3 +28.6 +32.9
21 10.07 С 3 15 км ясно +27.4 +22.6 75 +36 +36 очень
душно
1002.7 1002.4
00 11.07 В 2 10 км ясно +26.4 +24.1 87 +37 +37 очень
душно
1002.2 1001.9
03 11.07 СЗ 2 6000 м дымка 8/8 270 м
[St]
+25.2 +23.3 89 +34 +34 очень
душно
1002.8 1002.5
06 11.07 В 2 10 км 1/1 300 м
[St]
+30.2 +24.6 72 +43 +51 опасность
перегрева
1003.9 1003.6 +24.8 +30.4
09 11.07 Ю 5 10 км 1/1 300 м
[St]
+31.3 +26.1 74 +47 +56 опасность
перегрева
1003.7 1003.4
12 11.07 Ю 6 15 км 1/1 900 м
[Cu hum]
+32.1 +26.2 71 +48 +54 опасность
перегрева
1002.7 1002.4
15 11.07 ЮЗ 8 15 км 1/1 900 м
[Cu hum]
+31.9 +26.2 72 +48 +48 опасность
перегрева
1002.2 1001.9
21 11.07 ЮЗ 4 10 км ясно +27.7 +24.5 83 +39 +39 очень
душно
1002.4 1002.1
00 12.07 штиль 0 8000 м дымка ясно +25.1 +21.6 81 +32 +32 очень
душно
1002.2 1001.9
03 12.07 В 2 13 км ясно +24.7 +18.9 70 +30 +30 очень
душно
1003.0 1002.7
06 12.07 ЮЗ 6 15 км 1/1 600 м
[Cu hum]
+30.8 +23.2 64 +41 +44 опасность
перегрева
1003.8 1003.5 +23.3 +30.8
09 12.07 ЮЗ 10 20 км 1/1 750 м
[Cu Sc]
+33.0 +23.6 58 +44 +45 опасность
перегрева
1004.1 1003.8
12 12.07 ЮЗ 15-20
{21}
20 км 1/1 150 м
[Cu Sc]
+32.5 +22.3 55 +42 +42 опасность
перегрева
1002.7 1002.4
15 12.07 ЮЗ 9
{21}
20 км 4/4 750 м
[Cu Sc]
+31.8 +22.5 58 +41 +41 опасность
перегрева
1003.0 1002.7
18 12.07 ЮЗ 4
{21}
15 км 1/1 750 м
[Cu hum]
+27.1 +21.4 71 +34 +34 очень
душно
1004.7 1004.4 +27.1 +33.0
21 12.07 СЗ 3 12 км ясно +25.6 +21.1 76 +32 +32 очень
душно
1005.8 1005.5
00 13.07 ЮВ 2 12 км ясно +24.5 +21.2 82 +31 +31 очень
душно
1005.5 1005.2
03 13.07 Ю 2 12 км ясно +23.4 +21.1 87 +31 +31 очень
душно
1006.0 1005.7
06 13.07 Ю 3 20 км ясно +27.0 +21.1 70 +34 +41 очень
душно
1007.0 1006.7 +23.4 +28.0
09 13.07 ЮЗ 8 20 км 1/1 600 м
[Cu hum]
+29.8 +21.7 62 +38 +41 очень
душно
1006.7 1006.4
12 13.07 ЮЗ 9 20 км 1/1 600 м
[Cu med, cong]
+30.6 +21.9 60 +39 +40 очень
душно
1005.8 1005.5
15 13.07 ЮЗ 11
{19}
17 км 1/1 750 м
[Cu med, cong]
+28.6 +22.6 70 +38 +38 очень
душно
1004.5 1004.2
18 13.07 ЮЗ 4
{19}
15 км 1/1 750 м
[Cu hum]
+26.8 +21.3 72 +34 +34 очень
душно
1005.9 1005.6 +26.8 +30.9
21 13.07 С 3 15 км ясно +26.7 +21.0 71 +34 +34 очень
душно
1006.9 1006.6
00 14.07 ЮЗ 1 15 км ясно +23.4 +20.5 84 +31 +31 очень
душно
1006.4 1006.1
03 14.07 З 2 20 км 1/1 540 м
[Sc]
+21.7 +19.3 86 +27 +27 душно 1006.4 1006.1
06 14.07 В 2 20 км 1/1 600 м
[Sc]
+28.6 +20.1 60 +35 +43 очень
душно
1006.4 1006.1 +21.6 +29.0
09 14.07 ЮВ 3 20 км 1/1 750 м
[Cu hum]
+29.1 +21.8 65 +37 +54 опасность
солнечного
удара
1006.1 1005.8
12 14.07 ЮЗ 11
{16}
17 км 4/4 600 м
[Cu Sc]
+32.1 +17.6 42 +36 +36 очень
душно
1004.9 1004.6
15 14.07 ЮЗ 9 18 км 4/4 750 м
[Cu Sc]
+29.8 +20.9 59 +37 +37 очень
душно
1004.2 1003.9
18 14.07 СЗ 5 20 км 3/3 1500 м
[Sc]
+28.2 +15.5 46 +31 +31 душно 1005.5 1005.2
21 14.07 Ю 2 20 км ясно +24.6 +20.1 76 +30 +30 очень
душно
1005.7 1005.4
00 15.07 штиль 0 20 км ясно +22.1 +19.5 85 +28 +28 душно 1004.7 1004.4
03 15.07 ЮЗ 1 25 км 1/1 600 м
[Cu hum]
+21.2 +17.8 81 +25 +25 комфорт 1005.0 1004.7
06 15.07 ЮЗ 7 18 км 3/3 750 м
[Cu med, cong]
+28.6 +21.6 66 +37 +38 очень
душно
1005.5 1005.2 +20.9 +28.6
09 15.07 ЮЗ 9 15 км 5/5 900 м
[Cu Sc]
+30.7 +22.3 61 +40 +41 очень
душно
1005.6 1005.3
12 15.07 ЮЗ 12-16
{18}
18 км 5/4 900 м
[Cu Sc Ac trans]
+29.2 +22.4 67 +38 +38 очень
душно
1004.7 1004.4
15 15.07 ЮЗ 10
{17}
20 км {ливн. осадки} 6/4 900 м
[Cu Sc Ac cuf]
+28.4 +22.6 71 +38 +38 очень
душно
1004.7 1004.4
18 15.07 С 4
{17}
18 км 1/1 2000 м
[Sc]
+28.3 +21.6 67 +36 +36 очень
душно
1005.7 1005.4 +27.0 +31.3
21 15.07 С 4 18 км ясно +26.1 +18.8 64 +31 +31 очень
душно
1006.6 1006.3
00 16.07 ЮЗ 3 18 км ясно +23.2 +19.6 80 +30 +30 очень
душно
1006.3 1006.0
03 16.07 СЗ 2 12 км 1/1 480 м
[Sc]
+20.9 +17.5 81 +26 +26 душно 1006.6 1006.3

 

Местоположение метеостанции Ларнака (Кипр): широта 34.88 долгота 33.63 высота над уровнем моря 2 м.

В архиве по умолчанию представлена погода в Ларнаке за последнюю неделю. Архивные данные за месяц целиком и за предыдущие месяцы, начиная с января 2011 года, Вы можете получить, выбрав интересующий диапазон дат из раскрывающегося списка и нажав кнопку "Ввод!".


*Определитесь, кто Вы:
робот инопланетянин человек

Внимание! Время в таблицах - всемирное. Для получения местного времени необходимо прибавить поправку, которая равна 2 ч.

Смотрите также архив погоды в соседних городах и на ближайших метеорологических станциях:

Погода в Никосии (Кипр) (32 км)
Погода в Unknown (Кипр) (36 км)
Погода в Аталассе (Кипр) (37 км)
Погода на Базе ВВС Gecitkale (Кипр) (40 км)
Погода в Фамагусте (Кипр) (40 км)
Погода в Лефконико (Кипр) (42 км)
Погода в Искеле (Кипр) (50 км)
Погода в Киринии (Кипр) (59 км)
Погода на Акротири (Кипр) (68 км)
Погода в Акденизе (Кипр) (76 км)

Пояснения к столбцам:

Ветер - указаны скорость ветра в м/с - средняя за 10 мин, порывы в срок и между сроками (в фигурных скобках) и направление, откуда дует ветер: С - северный, СВ - северо-восточный, В - восточный, ЮВ - юго-восточный, Ю - южный, ЮЗ - юго-западный, З - западный, СЗ - северо-западный.
Видимость - горизонтальная дальность видимости в метрах или километрах. При видимости от 1 до 10 км при отсутствии осадков обычно наблюдается дымка, при ухудшении видимости до 1 км и менее - туман. В сухую погоду видимость может ухудшаться дымом, пылью или мглою.
Явления - указаны атмосферные явления, наблюдавшиеся в срок или в последний час перед сроком; фигурными скобками обозначены явления, наблюдавшиеся между сроками (за 1-3 часа до срока); квадратными скобками обозначены град или гололедные отложения с указанием их диаметра в мм.
Облачность - указаны через наклонную черту общая и нижняя облачность в баллах и высота нижней границы облаков в метрах; квадратными скобками обозначены формы облаков: Ci - перистые, Cs - перисто-слоистые, Cc - перисто-кучевые, Ac - высококучевые, As - высокослоистые, Sc - слоисто-кучевые, Ns - слоисто-дождевые, Cu - кучевые, Cb - кучево-дождевые. Подробнее классификацию облаков см. в Атласе облаков (PDF).
T - Температура воздуха - температура, измеренная на высоте 2 м над землей.
Td - Температура точки росы - температура, при понижении до которой содержащийся в воздухе водяной пар достигнет насыщения.
f - Относительная влажность воздуха - влажноcть воздуха, измеренная на высоте 2 м над землей.
Te - Эффективная температура - температура, которую ощущает одетый по сезону человек в тени. Характеристика душности погоды. При расчете учитывается влияние влажности воздуха и скорости ветра на теплоощущения человека.
Tes - Эффективная температура на солнце - температура, которую ощущает человек, с поправкой на солнечный нагрев. Характеристика знойности погоды. Зависит от высоты солнца над горизонтом, облачности и скорости ветра. Ночью, в пасмурную погоду, а также при ветре 12 м/с и более поправка равна нулю.
P - Атмосферное давление - приведенное к уровню моря атмосферное давление.
Po - Атмосферное давление - измеренное на уровне метеостанции атмосферное давление.
Tmin - Минимальная температура - минимум температуры воздуха на высоте 2 м над землей.
Tmax - Максимальная температура - максимум температуры воздуха на высоте 2 м над землей.
R - Количество осадков - Количество выпавших осадков за период времени, мм. При наведении курсора мыши на число - период времени, за который выпало указанное количество осадков.
R24 - Количество осадков - Количество выпавших осадков за 24 часа, мм.
S - Снежный покров - Высота снежного покрова, см. При наведении курсора мыши на число - состояние снежного покрова и степень покрытия местности в баллах.